Previsão horária em Al Marj

Hoje, 16 Junho, Quarta-feira

Tempo Temperatura Precipitação Vento Pressão Humidade
00:00 +18°C° 0 mm 3 m/s 713 mmHg 80%
01:00 +18°C° 0 mm 2 m/s 713 mmHg 84%
02:00 +18°C° 0 mm 2 m/s 713 mmHg 86%
03:00 +18°C° 0 mm 2 m/s 713 mmHg 89%
04:00 +18°C° 0 mm 3 m/s 712 mmHg 91%
05:00 +18°C° 0 mm 3 m/s 713 mmHg 84%
06:00 +19°C° 0 mm 2 m/s 713 mmHg 78%
07:00 +20°C° 0 mm 2 m/s 714 mmHg 72%
08:00 +21°C° 0 mm 2 m/s 714 mmHg 62%
09:00 +24°C° 0 mm 2 m/s 714 mmHg 52%
10:00 +25°C° 0 mm 1 m/s 714 mmHg 43%
11:00 +27°C° 0 mm 2 m/s 714 mmHg 38%
12:00 +28°C° 0 mm 4 m/s 714 mmHg 33%
13:00 +29°C° 0 mm 5 m/s 714 mmHg 28%
14:00 +28°C° 0 mm 5 m/s 714 mmHg 29%
15:00 +28°C° 0 mm 6 m/s 714 mmHg 30%
16:00 +27°C° 0 mm 7 m/s 714 mmHg 31%
17:00 +24°C° 0 mm 6 m/s 714 mmHg 35%
18:00 +22°C° 0 mm 6 m/s 714 mmHg 39%
19:00 +21°C° 0 mm 5 m/s 714 mmHg 44%
20:00 +20°C° 0 mm 5 m/s 714 mmHg 48%
21:00 +20°C° 0 mm 4 m/s 714 mmHg 52%
22:00 +19°C° 0 mm 4 m/s 715 mmHg 57%
23:00 +19°C° 0 mm 3 m/s 714 mmHg 55%

Amanhã, 17 Junho, Quinta-feira

Tempo Temperatura Precipitação Vento Pressão Humidade
00:00 +19°C° 0 mm 3 m/s 714 mmHg 54%
01:00 +18°C° 0 mm 2 m/s 714 mmHg 52%
02:00 +18°C° 0 mm 2 m/s 714 mmHg 54%
03:00 +18°C° 0 mm 2 m/s 714 mmHg 57%
04:00 +17°C° 0 mm 3 m/s 713 mmHg 59%
05:00 +18°C° 0 mm 3 m/s 714 mmHg 55%
06:00 +19°C° 0 mm 4 m/s 714 mmHg 52%
07:00 +20°C° 0 mm 5 m/s 715 mmHg 48%
08:00 +22°C° 0 mm 4 m/s 715 mmHg 43%
09:00 +25°C° 0 mm 4 m/s 716 mmHg 39%
10:00 +27°C° 0 mm 3 m/s 716 mmHg 34%
11:00 +28°C° 0 mm 3 m/s 716 mmHg 30%
12:00 +29°C° 0 mm 3 m/s 716 mmHg 27%
13:00 +30°C° 0 mm 3 m/s 716 mmHg 23%
14:00 +30°C° 0 mm 3 m/s 715 mmHg 24%
15:00 +30°C° 0 mm 4 m/s 715 mmHg 26%
16:00 +29°C° 0 mm 4 m/s 715 mmHg 27%
17:00 +27°C° 0 mm 5 m/s 715 mmHg 35%
18:00 +24°C° 0 mm 6 m/s 715 mmHg 43%
19:00 +22°C° 0 mm 7 m/s 715 mmHg 51%
20:00 +22°C° 0 mm 6 m/s 715 mmHg 54%
21:00 +21°C° 0 mm 5 m/s 715 mmHg 57%
22:00 +20°C° 0 mm 4 m/s 715 mmHg 59%
23:00 +20°C° 0 mm 4 m/s 714 mmHg 59%

Depois de amanhã, 18 Junho, Sexta-feira

Tempo Temperatura Precipitação Vento Pressão Humidade
00:00 +20°C° 0 mm 4 m/s 714 mmHg 58%
01:00 +20°C° 0 mm 3 m/s 714 mmHg 58%
02:00 +19°C° 0 mm 3 m/s 714 mmHg 58%
03:00 +19°C° 0 mm 3 m/s 713 mmHg 59%
04:00 +18°C° 0 mm 3 m/s 713 mmHg 60%
05:00 +19°C° 0 mm 3 m/s 714 mmHg 54%
06:00 +21°C° 0 mm 3 m/s 714 mmHg 49%
07:00 +22°C° 0 mm 3 m/s 715 mmHg 44%
08:00 +25°C° 0 mm 3 m/s 715 mmHg 39%
09:00 +26°C° 0 mm 2 m/s 715 mmHg 35%
10:00 +28°C° 0 mm 2 m/s 715 mmHg 30%
11:00 +29°C° 0 mm 2 m/s 715 mmHg 28%
12:00 +30°C° 0 mm 3 m/s 715 mmHg 26%
13:00 +31°C° 0 mm 3 m/s 714 mmHg 24%
14:00 +30°C° 0 mm 5 m/s 714 mmHg 27%
15:00 +29°C° 0 mm 6 m/s 714 mmHg 29%
16:00 +28°C° 0 mm 8 m/s 714 mmHg 32%
17:00 +26°C° 0 mm 8 m/s 714 mmHg 39%
18:00 +23°C° 0 mm 8 m/s 714 mmHg 46%
19:00 +21°C° 0 mm 8 m/s 714 mmHg 53%
20:00 +20°C° 0 mm 8 m/s 714 mmHg 60%
21:00 +20°C° 0 mm 8 m/s 714 mmHg 67%
22:00 +18°C° 0 mm 8 m/s 714 mmHg 74%
23:00 +18°C° 0 mm 7 m/s 714 mmHg 76%

19 Junho, Sábado

Tempo Temperatura Precipitação Vento Pressão Humidade
00:00 +17°C° 0 mm 6 m/s 713 mmHg 79%
01:00 +17°C° 0 mm 6 m/s 713 mmHg 81%
02:00 +16°C° 0 mm 5 m/s 713 mmHg 84%
03:00 +17°C° 0 mm 4 m/s 713 mmHg 86%
04:00 +17°C° 0 mm 4 m/s 713 mmHg 89%
05:00 +18°C° 0 mm 4 m/s 713 mmHg 79%
06:00 +19°C° 0 mm 5 m/s 714 mmHg 70%
07:00 +21°C° 0 mm 5 m/s 714 mmHg 60%
08:00 +23°C° 0 mm 5 m/s 714 mmHg 50%
09:00 +26°C° 0 mm 5 m/s 714 mmHg 40%
10:00 +28°C° 0 mm 5 m/s 715 mmHg 30%
11:00 +29°C° 0 mm 5 m/s 714 mmHg 27%
12:00 +30°C° 0 mm 6 m/s 714 mmHg 25%
13:00 +30°C° 0 mm 7 m/s 714 mmHg 23%
14:00 +30°C° 0 mm 7 m/s 714 mmHg 26%
15:00 +29°C° 0 mm 7 m/s 714 mmHg 29%
16:00 +28°C° 0 mm 8 m/s 714 mmHg 32%
17:00 +26°C° 0 mm 7 m/s 713 mmHg 41%
18:00 +23°C° 0 mm 6 m/s 713 mmHg 49%
19:00 +22°C° 0 mm 6 m/s 713 mmHg 58%
20:00 +21°C° 0 mm 5 m/s 713 mmHg 65%
21:00 +20°C° 0 mm 5 m/s 713 mmHg 73%
22:00 +20°C° 0 mm 4 m/s 713 mmHg 80%
23:00 +19°C° 0 mm 4 m/s 713 mmHg 81%

20 Junho, Domingo

Tempo Temperatura Precipitação Vento Pressão Humidade
00:00 +19°C° 0 mm 4 m/s 713 mmHg 82%
01:00 +19°C° 0 mm 3 m/s 713 mmHg 82%
02:00 +19°C° 0 mm 3 m/s 712 mmHg 82%
03:00 +18°C° 0 mm 3 m/s 712 mmHg 81%
04:00 +18°C° 0 mm 3 m/s 712 mmHg 81%
05:00 +20°C° 0 mm 3 m/s 712 mmHg 72%
06:00 +21°C° 0 mm 3 m/s 713 mmHg 62%
07:00 +24°C° 0 mm 3 m/s 713 mmHg 53%
08:00 +26°C° 0 mm 4 m/s 713 mmHg 46%
09:00 +28°C° 0 mm 4 m/s 713 mmHg 38%
10:00 +30°C° 0 mm 4 m/s 713 mmHg 30%
11:00 +32°C° 0 mm 5 m/s 713 mmHg 30%
12:00 +32°C° 0 mm 6 m/s 713 mmHg 29%
13:00 +33°C° 0 mm 7 m/s 713 mmHg 28%
14:00 +32°C° 0 mm 7 m/s 713 mmHg 30%
15:00 +30°C° 0 mm 7 m/s 713 mmHg 33%
16:00 +29°C° 0 mm 7 m/s 713 mmHg 35%
17:00 +28°C° 0 mm 6 m/s 712 mmHg 41%
18:00 +26°C° 0 mm 5 m/s 712 mmHg 47%
19:00 +25°C° 0 mm 4 m/s 712 mmHg 53%
20:00 +23°C° 0 mm 4 m/s 712 mmHg 56%
21:00 +22°C° 0 mm 3 m/s 712 mmHg 59%
22:00 +23°C° 0 mm 2 m/s 712 mmHg 62%
23:00 +21°C° 0 mm 2 m/s 712 mmHg 61%

21 Junho, Segunda-feira

Tempo Temperatura Precipitação Vento Pressão Humidade
00:00 +21°C° 0 mm 2 m/s 712 mmHg 60%
01:00 +21°C° 0 mm 2 m/s 711 mmHg 59%
02:00 +21°C° 0 mm 2 m/s 711 mmHg 59%
03:00 +20°C° 0 mm 2 m/s 711 mmHg 60%
04:00 +20°C° 0 mm 2 m/s 711 mmHg 60%
05:00 +21°C° 0 mm 2 m/s 712 mmHg 55%
06:00 +23°C° 0 mm 1 m/s 712 mmHg 50%
07:00 +25°C° 0 mm 1 m/s 713 mmHg 46%
08:00 +26°C° 0 mm 1 m/s 713 mmHg 40%
09:00 +28°C° 0 mm 2 m/s 713 mmHg 35%
10:00 +30°C° 0 mm 2 m/s 713 mmHg 30%
11:00 +31°C° 0 mm 3 m/s 713 mmHg 28%
12:00 +33°C° 0 mm 4 m/s 713 mmHg 27%
13:00 +34°C° 0 mm 6 m/s 713 mmHg 25%
14:00 +33°C° 0 mm 6 m/s 712 mmHg 27%
15:00 +32°C° 0 mm 7 m/s 712 mmHg 30%
16:00 +32°C° 0 mm 7 m/s 712 mmHg 32%
17:00 +28°C° 0 mm 7 m/s 712 mmHg 40%
18:00 +26°C° 0 mm 6 m/s 712 mmHg 48%
19:00 +23°C° 0 mm 6 m/s 712 mmHg 56%
20:00 +23°C° 0 mm 5 m/s 712 mmHg 58%
21:00 +22°C° 0 mm 4 m/s 712 mmHg 60%
22:00 +21°C° 0 mm 3 m/s 713 mmHg 62%
23:00 +21°C° 0 mm 3 m/s 713 mmHg 62%
Mostrar mais